Location: Isle of Man Observatory
(54.1776°N, 4.6264°W)
Time: 06:53:58
(UTC+02:00)

Envisat - Pass Details

Date: 24 May 2026
Orbit: 761 x 763 km, 98.4° (Epoch: 11 June)

Event Time Altitude Azimuth Distance (km) Brightness Sun altitude
Rises 03:27:58 0° 27° (NNE) 3,237 8.1 -13.5°
Reaches altitude 10° 03:31:24 10° 52° (NE) 2,304 6.4 -13.3°
Maximum altitude 03:34:08 14° 85° (E) 2,005 5.5 -13.2°
Drops below altitude 10° 03:36:51 10° 118° (ESE) 2,295 5.4 -13.1°
Sets 03:40:15 0° 142° (SE) 3,214 5.9 -12.9°
